[[{"header":{"parameterUnit":"m.s-1","parameterCategory":1,"la1":30.2991,"la2":30.254,"lo1":-89.0895,"lo2":-89.0444,"dy":0.0017,"dx":0.0017,"nx":28,"ny":28,"refTime":"2023-09-06T09:00:00:Z","depth":0,"parameterNumber":2,"parameterNumberName":"U-component_of_WINDS"},"data":[0,0,0,0,0,0,0,0,0,0,0,0,0,0,0,0,0,0,0,0,0,0,0,0,0,0,0,0,0,0,0,0,0,0,0,0,0,0,0,0,0,0,0,0,0,0,0,0,0,0,0,0,0,0,0,0,0,0,1.6059,1.6061,0,1.6236,1.6238,1.624,1.6372,1.6373,1.6375,1.6376,1.654,1.6543,1.6546,0,0,0,0,0,0,0,0,0,0,0,0,0,1.5819,1.5823,1.6059,1.6061,1.6064,1.6236,1.6238,1.624,1.6372,1.6374,1.6375,1.6376,1.6539,1.6542,1.6546,0,0,0,0,0,0,0,0,0,0,0,0,0,1.5952,1.5824,1.6059,1.6151,1.6161,1.6235,1.6238,1.6241,1.6372,1.6374,1.6375,1.6377,1.6537,1.6542,1.6547,1.6539,0,0,1.6561,1.6563,0,0,0,0,0,0,0,0,1.5944,1.596,1.6135,1.6144,1.6156,1.6285,1.6214,1.634,1.6371,1.6291,1.6376,1.6378,1.6452,1.6464,1.6492,1.6547,1.6554,1.6562,1.6565,1.6567,1.6568,0,0,0,0,0,0,0,1.5935,1.5953,1.6129,1.6137,1.615,1.6177,1.6198,1.6238,1.6358,1.6298,1.6308,1.6328,1.6458,1.6487,1.6497,1.6556,1.6562,1.6566,1.6569,1.6571,1.6613,1.6611,0,0,0,0,0,0,1.5914,1.5945,1.6123,1.6134,1.6053,1.618,1.6204,1.6241,1.6358,1.6378,1.6326,1.6334,1.6478,1.6491,1.6503,1.6503,1.6567,1.6571,1.6574,1.6615,1.6613,1.6611,0,0,0,0,0,0,1.5908,1.5928,1.6116,1.6043,1.6069,1.6183,1.6223,1.6243,1.6274,1.638,1.64,1.6336,1.648,1.6497,1.6531,1.6511,1.6573,1.6578,1.6617,1.6614,1.6612,1.6502,0,0,0,0,0,0,1.5901,1.5926,1.5928,1.6042,1.6072,1.6144,1.6222,1.6245,1.6283,1.6295,1.6394,1.6412,1.6483,1.6523,1.6535,1.6518,1.6582,1.6619,1.6616,1.6612,1.6508,1.6496,1.6486,0,0,0,0,0,1.5892,1.5886,1.5927,1.5948,1.6078,1.6143,1.616,1.6247,1.6281,1.6282,1.635,1.6409,1.6511,1.6525,1.654,1.6525,1.6621,1.6617,1.6613,1.6513,1.6498,1.6486,0,0,0,0,0,0,1.576,1.5902,1.595,1.5982,1.605,1.6166,1.6169,1.6228,1.6283,1.6291,1.639,1.6412,1.6435,1.6483,1.6496,1.6523,1.6573,1.6572,1.6492,1.6479,1.6468,1.6455,1.6586,0,0,0,0,0,1.5736,1.5783,1.5902,1.5918,1.5951,1.6054,1.6085,1.6147,1.6219,1.6247,1.6318,1.6381,1.6428,1.6455,1.6504,1.6515,1.6538,1.6512,1.65,1.6491,1.6488,1.6497,1.6487,1.6598,1.6598,1.6598,0,0,1.5683,1.5767,1.579,1.5894,1.5955,1.5996,1.6077,1.6117,1.6147,1.6251,1.629,1.6343,1.642,1.6443,1.6456,1.6483,1.6463,1.6486,1.6477,1.648,1.6492,1.6482,1.6472,1.6595,1.6595,1.6596,0,0,1.5611,1.568,1.5703,1.5763,1.5855,1.5924,1.5928,1.6036,1.6078,1.6119,1.6198,1.6232,1.631,1.6362,1.6399,1.6347,1.6402,1.6359,1.6301,1.6308,1.63,1.6292,1.6273,1.6266,1.6356,1.6356,1.6356,0,1.5534,1.5606,1.5704,1.5742,1.5784,1.5886,1.5907,1.5958,1.6058,1.6082,1.6113,1.6215,1.6273,1.631,1.6297,1.6323,1.6329,1.6348,1.6294,1.6288,1.6282,1.6265,1.6258,1.635,1.6351,1.6351,1.6352,0,1.5505,1.5553,1.5559,1.5661,1.5704,1.5731,1.583,1.586,1.5917,1.5981,1.602,1.6095,1.6161,1.6174,1.6227,1.6217,1.6232,1.6276,1.6328,1.6264,1.625,1.6244,1.6342,1.6344,1.6346,1.6347,0,0,1.5354,1.5514,1.5514,1.5562,1.5672,1.5708,1.5738,1.5809,1.5832,1.5897,1.5924,1.5988,1.6032,1.6073,1.6133,1.6139,1.6093,1.6184,1.6187,1.6164,1.6086,1.6051,1.6042,1.6131,1.613,1.6129,1.6079,0,1.5299,1.5368,1.5458,1.5494,1.5538,1.5636,1.5662,1.5729,1.5789,1.5831,1.5895,1.594,1.5994,1.6019,1.603,1.6096,1.6079,1.6101,1.6152,1.6153,1.6131,1.6035,1.5999,1.5948,1.6074,1.6073,1.6073,0,1.5244,1.5312,1.5354,1.5462,1.5483,1.5506,1.5579,1.5619,1.5695,1.5738,1.5785,1.5852,1.5884,1.5931,1.5976,1.599,1.6015,1.6051,1.6051,1.6058,1.6109,1.604,1.5934,1.5926,1.6065,1.6065,1.6066,0,1.513,1.523,1.527,1.5307,1.5433,1.5447,1.5499,1.5579,1.5615,1.5675,1.57,1.576,1.5793,1.5837,1.5916,1.5943,1.5951,1.6005,1.5985,1.5983,1.5982,1.5981,1.5879,1.5998,1.5998,1.5998,1.5999,0,1.5059,1.5081,1.5221,1.5244,1.527,1.5371,1.5392,1.5452,1.5522,1.5555,1.564,1.5668,1.5771,1.581,1.5871,1.5898,1.5912,1.5945,1.5961,1.5938,1.5933,1.5956,1.5961,1.5997,1.5997,1.5997,1.5998,0,1.4936,1.5031,1.508,1.5198,1.5227,1.5241,1.5339,1.5362,1.5429,1.5469,1.5484,1.5585,1.5635,1.572,1.5791,1.5833,1.5848,1.5875,1.5824,1.5834,1.5809,1.581,1.5717,1.571,1.5833,1.5832,1.5831,0,1.4886,1.4906,1.5027,1.5059,1.511,1.5159,1.5199,1.5297,1.5333,1.5423,1.5435,1.5493,1.5545,1.5619,1.5696,1.5751,1.578,1.5744,1.5788,1.5765,1.5779,1.5777,1.5779,1.5733,1.5731,1.573,1.5729,0,1.4785,1.4831,1.4889,1.4963,1.5009,1.507,1.5134,1.5153,1.5265,1.5301,1.5357,1.5397,1.5474,1.5529,1.5596,1.5644,1.5703,1.5714,1.5713,1.5689,1.5658,1.5674,1.5796,1.5716,1.5717,1.5718,1.5719,1.5719,1.4697,1.472,1.481,1.487,1.493,1.4989,1.5018,1.509,1.514,1.5215,1.5268,1.532,1.5394,1.5491,1.5535,1.5573,1.56,1.5598,1.5597,1.5595,1.5586,1.5653,1.5585,1.5586,1.5586,1.5587,1.5587,0,1.46,1.4664,1.4719,1.481,1.4857,1.4916,1.499,1.5023,1.507,1.5137,1.5188,1.5251,1.5305,1.5387,1.5446,1.5461,1.5489,1.5473,1.5472,1.5482,1.5558,1.5554,1.5449,1.5449,1.5449,1.5449,1.5449,1.5449,1.4556,1.4599,1.4655,1.4726,1.4788,1.4845,1.4882,1.4935,1.499,1.5059,1.5107,1.5162,1.5234,1.53,1.535,1.5373,1.539,1.5365,1.5395,1.5464,1.5477,1.5489,1.5486,1.5368,1.5368,1.5316,1.5315,1.5315]},{"header":{"parameterUnit":"m.s-1","parameterCategory":1,"la1":30.2991,"la2":30.254,"lo1":-89.0895,"lo2":-89.0444,"dy":0.0017,"dx":0.0017,"nx":28,"ny":28,"refTime":"2023-09-06T09:00:00:Z","depth":0,"parameterNumber":3,"parameterNumberName":"V-component_of_WINDS"},"data":[0,0,0,0,0,0,0,0,0,0,0,0,0,0,0,0,0,0,0,0,0,0,0,0,0,0,0,0,0,0,0,0,0,0,0,0,0,0,0,0,0,0,0,0,0,0,0,0,0,0,0,0,0,0,0,0,0,0,3.2376,3.2379,0,3.2671,3.2674,3.2678,3.2722,3.2719,3.2717,3.2714,3.3017,3.3027,3.3037,0,0,0,0,0,0,0,0,0,0,0,0,0,3.1843,3.1853,3.2375,3.2379,3.2383,3.267,3.2675,3.2679,3.2722,3.2719,3.2716,3.2713,3.3013,3.3025,3.3038,0,0,0,0,0,0,0,0,0,0,0,0,0,3.21,3.1856,3.2375,3.2439,3.2448,3.267,3.2675,3.268,3.2723,3.2719,3.2715,3.2711,3.3009,3.3024,3.304,3.3218,0,0,3.3088,3.3095,0,0,0,0,0,0,0,0,3.2086,3.212,3.2426,3.2435,3.2445,3.2656,3.2598,3.286,3.2724,3.2619,3.2714,3.2709,3.29,3.2924,3.2988,3.3232,3.3245,3.309,3.3099,3.3106,3.311,0,0,0,0,0,0,0,3.2068,3.2107,3.2492,3.243,3.2442,3.2452,3.2484,3.2648,3.2778,3.2628,3.2631,3.2666,3.2904,3.2973,3.2996,3.3249,3.3089,3.3103,3.3113,3.3119,3.3649,3.3653,0,0,0,0,0,0,3.2039,3.2092,3.2483,3.2501,3.2252,3.2464,3.25,3.2592,3.2776,3.2801,3.2669,3.2667,3.2948,3.2977,3.3007,3.3227,3.3106,3.3121,3.313,3.3644,3.365,3.3655,0,0,0,0,0,0,3.2027,3.2073,3.2471,3.2298,3.2349,3.2478,3.2581,3.26,3.2669,3.2808,3.2831,3.2716,3.2946,3.2984,3.3164,3.3238,3.3128,3.3142,3.3639,3.3646,3.3653,3.3668,0,0,0,0,0,0,3.2012,3.2069,3.214,3.2299,3.2358,3.2626,3.2585,3.2609,3.2697,3.2697,3.2858,3.2881,3.2946,3.314,3.318,3.3258,3.3155,3.3633,3.3642,3.365,3.3662,3.3675,3.3686,0,0,0,0,0,3.1993,3.2133,3.2143,3.219,3.245,3.263,3.2664,3.2736,3.2702,3.2774,3.2861,3.2876,3.3221,3.3158,3.3203,3.3287,3.3629,3.364,3.365,3.3656,3.3672,3.3685,0,0,0,0,0,0,3.1981,3.2156,3.2169,3.2365,3.2482,3.2637,3.273,3.2751,3.288,3.2875,3.2957,3.2993,3.3169,3.3245,3.3171,3.3466,3.3422,3.3442,3.3412,3.3428,3.344,3.342,3.3168,0,0,0,0,0,3.2001,3.2134,3.2278,3.2437,3.2495,3.2601,3.2683,3.2727,3.2852,3.2902,3.3003,3.3123,3.3258,3.3346,3.3479,3.367,3.3705,3.3749,3.376,3.377,3.3788,3.3892,3.3913,3.3689,3.3689,3.3689,0,0,3.2045,3.2156,3.2236,3.2438,3.2534,3.2668,3.2644,3.2788,3.2888,3.2924,3.3101,3.3177,3.3316,3.3502,3.3588,3.3571,3.3856,3.3783,3.3789,3.3803,3.3905,3.3926,3.3945,3.3696,3.3695,3.3694,0,0,3.2194,3.2291,3.2434,3.2529,3.2673,3.2742,3.2775,3.2926,3.2978,3.3156,3.3185,3.3302,3.3535,3.3632,3.3711,3.3887,3.3905,3.3927,3.3992,3.4093,3.4111,3.4127,3.4191,3.4213,3.3943,3.3943,3.3943,0,3.2232,3.2436,3.2505,3.2647,3.2734,3.2769,3.2913,3.3001,3.3181,3.324,3.3216,3.3504,3.36,3.3808,3.385,3.3913,3.3953,3.3913,3.4103,3.412,3.4136,3.4197,3.4221,3.3945,3.3945,3.3945,3.3944,0,3.2474,3.2614,3.2711,3.2883,3.298,3.3122,3.321,3.33,3.3332,3.3402,3.358,3.3694,3.3849,3.39,3.3935,3.4112,3.4096,3.4086,3.4045,3.4158,3.4217,3.4242,3.3948,3.3947,3.3947,3.3946,0,0,3.2635,3.2836,3.2871,3.2948,3.3105,3.3214,3.3354,3.3504,3.3579,3.3699,3.3819,3.401,3.4,3.409,3.4134,3.4222,3.4354,3.4201,3.4205,3.4228,3.4555,3.4565,3.4592,3.4363,3.4368,3.4371,3.4544,0,3.2805,3.3059,3.3121,3.3338,3.3467,3.3497,3.3619,3.3727,3.3794,3.3911,3.3984,3.4119,3.4095,3.4149,3.4237,3.4319,3.4421,3.4307,3.4477,3.4482,3.4446,3.4623,3.4635,3.4793,3.4568,3.4572,3.4575,0,3.3041,3.3164,3.3393,3.3528,3.3585,3.3694,3.3834,3.3946,3.4067,3.4108,3.4204,3.4238,3.4383,3.4328,3.4528,3.4449,3.452,3.457,3.4577,3.4601,3.4539,3.4654,3.4845,3.487,3.4612,3.4609,3.4606,0,3.3137,3.3359,3.3525,3.3588,3.375,3.3826,3.3897,3.4013,3.4098,3.4218,3.4273,3.4409,3.4484,3.4587,3.4655,3.4609,3.4849,3.4801,3.4889,3.4887,3.4944,3.4941,3.5154,3.4982,3.4982,3.4981,3.4981,0,3.3325,3.3464,3.357,3.3672,3.3827,3.3893,3.4045,3.4116,3.4218,3.4333,3.4364,3.4471,3.4553,3.467,3.4723,3.488,3.4913,3.495,3.4964,3.4951,3.4946,3.5003,3.4996,3.4987,3.4986,3.4985,3.4984,0,3.3463,3.3539,3.3721,3.3856,3.3893,3.4002,3.4117,3.4216,3.4279,3.4424,3.4461,3.4561,3.47,3.4776,3.495,3.4985,3.5162,3.5167,3.5122,3.5129,3.5213,3.5205,3.5474,3.5513,3.5311,3.5313,3.5315,0,3.3581,3.3688,3.3833,3.3912,3.3983,3.4109,3.4194,3.426,3.4347,3.4488,3.457,3.4709,3.4826,3.5045,3.5133,3.5265,3.5276,3.536,3.5297,3.5279,3.5281,3.5275,3.5286,3.5374,3.5376,3.5377,3.5378,0,3.3782,3.3812,3.3933,3.4066,3.4165,3.4274,3.4381,3.4442,3.4525,3.462,3.4761,3.4851,3.5026,3.5164,3.5302,3.5372,3.539,3.5396,3.5424,3.5415,3.5385,3.5404,3.5157,3.5392,3.5391,3.539,3.5389,3.5388,3.3916,3.4012,3.4127,3.426,3.4345,3.4442,3.4541,3.4614,3.4733,3.4881,3.491,3.5059,3.5171,3.5357,3.543,3.5547,3.5531,3.5571,3.5582,3.5592,3.5596,3.5361,3.5571,3.5571,3.5571,3.5571,3.557,0,3.4121,3.4194,3.4315,3.4461,3.4564,3.4566,3.4682,3.4768,3.4899,3.5001,3.5112,3.5272,3.5404,3.5498,3.5632,3.5707,3.5718,3.574,3.5738,3.5754,3.5602,3.5566,3.5729,3.5729,3.5729,3.5729,3.5729,3.5729,3.424,3.4402,3.4444,3.4646,3.4718,3.4864,3.493,3.5018,3.51,3.5277,3.5386,3.5445,3.5543,3.5683,3.5803,3.5827,3.5876,3.5898,3.5923,3.5781,3.5765,3.5749,3.5716,3.5907,3.5908,3.6066,3.6068,3.6069]}]]